Retour au catalogue

SL-12 DEB

ActifHEO
NORAD 39800·DEBRIS·🇷🇺 Russia

Lancé Sep 25, 2008 depuis Baikonur Cosmodrome

Loading…

Prochains Passages (prochaines 24 heures)

TLE

FraisSource: Space-Track

Époque: Sep 14, 2026, 02:14 UTC

1 39800U 08046M   26257.09346087  .00000038  00000-0  40622-3 0  9995
2 39800  65.2236 329.5424 5680043 246.1331  46.0406  4.24167703190308

Suivez SL-12 DEB en temps réel avec AllMySat

Download on the App Store